Lid_Strength_Index
4 4 4 4 4 5 4 4 3 3 3 4 4 4 4 3 3 7 9 10 11 13 12 10 9 10 11 11 12 10 10 10 12 14 14 14 14 14 14 12 13 14 16 18 17 18 18 9 10 14 12 11 10 11
3 3 3 4 4 4 4 4 3 2 2 3 3 4 3 2 2 6 10 10 9 10 10 10 8 8 9 9 10 10 10 10 10 13 13 13 14 14 14 16 12 15 13 15 15 15 12 10 11 10 10 10 10 10
3 3 3 3 3 3 3 3 3 3 2 3 3 3 3 3 2 4 9 10 10 11 11 10 9 8 9 8 8 11 9 8 9 10 11 13 14 13 15 15 14 12 11 15 14 12 11 10 10 9 9 10 9 9
3 2 2 3 3 3 3 3 3 2 1 2 2 3 3 2 1 3 7 10 10 11 13 11 7 8 6 6 6 7 7 8 9 10 12 14 14 12 14 13 13 12 11 13 13 11 11 9 9 9 9 9 10 11
3 3 2 2 2 2 2 2 2 2 1 1 1 1 2 2 1 3 5 7 8 10 13 11 9 8 8 6 7 7 8 9 11 12 13 13 12 12 13 12 13 11 12 14 14 10 11 11 9 9 10 10 11 12
2 3 3 2 2 2 2 2 2 1 1 0 0 0 1 1 1 5 8 8 7 8 10 13 10 8 8 7 7 8 8 10 11 12 13 12 10 11 14 14 11 10 10 10 10 9 11 10 9 9 10 11 11 11
2 2 2 2 2 2 2 2 2 2 1 1 0 0 0 -0 3 5 7 7 6 7 10 12 12 8 7 8 9 9 9 9 10 11 11 12 11 11 14 16 10 9 9 9 9 9 10 10 10 10 10 11 10 9
1 2 2 2 2 2 2 2 2 2 1 1 1 0 -0 0 2 4 3 2 4 8 9 12 12 10 7 10 10 10 10 10 10 11 11 11 11 12 14 11 10 8 9 9 9 9 10 10 10 10 11 12 11 10
1 1 2 2 2 2 2 2 2 2 2 1 1 0 2 4 5 5 1 2 5 9 13 12 13 12 8 10 9 9 10 11 10 11 11 11 12 13 11 10 9 8 9 9 10 10 10 10 11 10 12 12 10 10
1 1 1 1 1 1 1 1 2 2 2 1 2 4 6 4 1 1 3 5 5 7 11 13 11 12 9 10 11 10 10 11 13 11 10 12 13 10 9 8 7 8 9 9 11 12 12 11 11 12 13 12 10 9
1 0 0 1 1 1 1 1 1 2 2 4 6 6 3 1 3 4 7 8 9 10 11 12 11 11 8 10 11 10 11 11 13 12 12 13 14 10 9 9 8 8 8 9 10 10 10 10 11 12 12 10 9 9
1 0 0 -0 0 0 1 1 1 4 5 3 4 3 3 5 6 9 10 8 9 11 11 12 11 9 9 8 9 10 11 11 13 10 12 14 11 9 8 8 8 9 9 10 10 10 10 10 10 11 11 10 10 10
0 0 0 -0 -0 0 0 0 1 1 1 2 5 6 7 7 11 12 13 11 11 10 10 11 11 9 10 9 10 10 12 12 10 12 13 12 10 9 9 9 10 9 9 10 10 10 9 9 9 11 10 9 9 10
0 -0 -0 -0 -1 -0 -0 0 0 1 2 6 8 11 10 11 11 10 10 9 8 9 9 9 10 9 10 10 10 11 10 10 14 14 13 11 10 9 9 9 10 10 10 10 10 10 9 9 9 10 8 8 9 10
-0 -0 -0 -0 -0 -1 -0 -0 -0 1 4 7 8 11 11 10 9 9 8 9 8 8 8 9 9 8 9 9 9 11 13 14 13 13 13 10 9 8 9 9 10 10 10 10 10 9 9 8 10 11 9 9 9 10
-0 -0 0 -0 -1 -1 -1 0 2 2 5 6 7 9 8 8 9 10 9 9 6 7 7 7 9 10 11 10 11 12 13 14 12 11 10 9 9 9 9 9 9 9 10 10 10 9 8 8 10 11 9 9 9 10
-0 2 -0 -0 -0 -0 0 3 4 6 7 7 9 7 7 7 8 7 6 6 5 6 9 9 11 11 10 12 13 11 12 10 10 10 9 9 9 9 9 9 9 9 10 10 9 9 8 7 9 10 11 10 10 10
3 2 0 -0 1 1 3 4 6 6 8 8 9 10 10 7 6 6 5 5 5 7 7 9 8 12 12 12 13 11 10 9 9 9 9 9 9 8 8 9 9 9 10 9 9 8 7 7 9 9 10 10 10 10
3 3 0 -0 1 3 5 5 6 8 8 7 8 9 9 7 6 5 4 4 5 4 6 7 10 11 12 10 10 10 9 9 9 9 9 8 8 8 9 9 9 10 9 9 9 7 7 7 8 9 10 9 10 9
1 1 0 0 1 4 6 6 4 7 9 9 9 10 9 7 6 6 6 6 5 6 8 9 10 8 9 7 7 7 7 7 7 9 10 10 9 9 9 9 10 10 9 9 8 8 7 7 8 9 9 9 9 9
3 3 1 2 3 3 4 5 6 6 7 10 10 9 9 9 8 9 9 7 8 10 10 8 8 6 5 5 5 5 6 6 7 7 8 10 9 9 10 10 9 9 9 9 9 8 8 8 8 8 9 9 8 8
3 2 3 2 5 5 5 5 8 8 9 10 9 9 12 11 11 10 9 11 9 8 7 7 6 6 6 5 5 5 6 7 7 7 8 8 9 10 10 10 9 9 9 9 8 8 8 8 8 8 8 8 8 7
1 2 3 4 7 7 8 6 9 10 11 10 9 10 11 11 11 9 13 11 10 7 6 6 6 6 6 5 4 4 4 5 6 7 7 8 8 8 9 8 8 8 9 9 8 8 8 10 9 8 8 8 8 7
1 4 6 7 9 11 6 9 10 10 9 11 11 11 12 13 10 12 12 11 9 9 8 8 8 8 6 6 6 5 5 5 6 7 7 7 8 9 8 8 8 7 7 8 8 8 8 8 10 9 8 8 8 8
10 9 9 14 9 10 10 10 10 10 11 11 13 12 12 12 13 13 11 11 10 10 9 9 9 9 8 8 6 6 4 4 5 7 7 7 8 8 8 8 7 7 7 8 8 7 7 8 8 8 8 7 7 7
14 10 12 10 10 10 11 11 11 11 11 11 11 11 13 13 11 12 11 10 11 11 10 9 10 10 10 9 7 6 5 4 5 6 6 6 6 7 7 8 8 7 7 7 7 7 7 7 7 7 8 9 11 8
16 11 10 9 10 10 11 10 11 11 11 11 12 12 14 13 12 10 8 8 8 9 9 9 8 9 9 9 8 6 4 3 4 4 5 5 6 5 6 6 7 6 6 6 6 5 7 7 7 7 7 7 7 7
10 10 11 11 11 11 10 10 11 10 11 10 11 12 13 13 12 9 7 6 6 6 7 7 8 7 8 7 7 6 4 4 5 4 4 5 5 5 6 5 5 8 5 5 5 5 6 6 6 6 6 7 7 7
10 10 9 10 11 11 11 11 11 10 8 10 11 12 10 8 7 6 6 5 5 6 6 7 7 7 7 7 7 6 4 4 5 6 6 8 7 7 6 6 6 5 5 5 10 7 5 5 6 5 6 6 6 7
11 10 11 10 11 11 10 10 10 8 7 7 7 8 7 7 6 4 5 6 6 6 6 5 6 6 7 7 8 7 4 3 3 4 5 7 6 6 6 6 5 5 5 5 6 7 11 6 8 6 6 7 7 7
10 11 11 11 10 9 8 7 7 7 7 7 7 8 9 7 7 6 5 5 5 5 6 6 6 6 6 7 7 7 7 5 3 3 3 4 5 5 5 5 5 5 5 5 5 5 6 6 6 6 6 7 8 8
11 12 12 12 12 9 8 9 9 9 9 9 9 9 8 8 9 7 6 6 6 7 7 7 6 5 4 5 6 5 7 4 3 3 3 4 4 5 4 4 4 4 4 4 5 5 5 5 6 6 7 7 7 7
11 11 12 12 12 11 9 9 9 10 10 11 11 10 9 9 9 7 5 5 5 6 6 6 5 5 4 4 5 5 7 3 5 8 8 8 8 6 4 4 4 4 4 4 4 4 5 5 6 6 6 7 7 7